Tracking 18980 objects as of 21-Feb-2018
HD Live streaming from Space Station
objects crossing your sky now

OPS 5712 (P/L 160)

Track OPS 5712 (P/L 160) now!
10-day predictions
OPS 5712 (P/L 160) is classified as:


NORAD ID: 2826
Int'l Code: 1967-053A
Perigee: 736.2 km
Apogee: 741.0 km
Inclination: 69.9 °
Period: 99.4 minutes
Semi major axis: 7109 km
RCS: 0.3991 m2 (medium)
Launch date: May 31, 1967
Source: United States (US)
Launch site: AIR FORCE WESTERN TEST RANGE (AFWTR)
aabbcc
Your satellite tracking list
Your tracking list is empty




NASA's NSSDC Master Catalog

Two Line Element Set (TLE):
1 02826U 67053A   18051.51795966  .00000517  00000-0  15468-3 0  9992
2 02826  69.9293  22.0271 0003349   2.1630 357.9517 14.48231652624637
Source of the keplerian elements: AFSPC